Time,TemperatureF,DewpointF,PressureIn,WindDirection,WindDirectionDegrees,WindSpeedMPH,WindSpeedGustMPH,Humidity,HourlyPrecipIn,Conditions,Clouds,dailyrainin,SolarRadiationWatts/m^2,SoftwareType,DateUTC
2013-07-24 00:00:00,71.6,55.1,29.96,ENE,67,0.0,0.0,56,0.00,,---,0.00,0.00,VWS V14.01,2013-07-23 22:00:00,
2013-07-24 00:10:00,71.3,54.8,29.96,ENE,67,0.0,0.0,56,0.00,,---,0.00,0.00,VWS V14.01,2013-07-23 22:10:00,
2013-07-24 00:15:00,71.0,54.0,29.96,ENE,67,0.0,0.0,55,0.00,,---,0.00,0.00,VWS V14.01,2013-07-23 22:15:00,
2013-07-24 00:20:00,70.9,54.4,29.96,ENE,67,0.0,0.0,56,0.00,,---,0.00,0.00,VWS V14.01,2013-07-23 22:20:00,
2013-07-24 00:25:00,70.6,54.2,29.96,ENE,67,0.0,0.0,56,0.00,,---,0.00,0.00,VWS V14.01,2013-07-23 22:25:00,
2013-07-24 00:35:00,70.1,54.2,29.95,ENE,67,0.0,1.0,57,0.00,,---,0.00,0.00,VWS V14.01,2013-07-23 22:35:00,
2013-07-24 00:45:00,69.7,53.8,29.95,ENE,67,0.0,2.0,57,0.00,,---,0.00,0.00,VWS V14.01,2013-07-23 22:45:00,
2013-07-24 00:50:00,69.6,53.7,29.95,ENE,67,0.0,0.0,57,0.00,,---,0.00,0.00,VWS V14.01,2013-07-23 22:50:00,
2013-07-24 00:55:00,69.5,53.6,29.95,ENE,67,0.0,0.0,57,0.00,,---,0.00,0.00,VWS V14.01,2013-07-23 22:55:00,
2013-07-24 01:00:00,69.4,54.0,29.95,ENE,67,0.0,0.0,58,0.00,,---,0.00,0.00,VWS V14.01,2013-07-23 23:00:00,
2013-07-24 01:10:00,69.2,53.8,29.95,ENE,67,0.0,0.0,58,0.00,,---,0.00,0.00,VWS V14.01,2013-07-23 23:10:00,
2013-07-24 01:20:00,68.9,54.0,29.95,ENE,67,0.0,0.0,59,0.00,,---,0.00,0.00,VWS V14.01,2013-07-23 23:20:00,
2013-07-24 01:25:00,68.8,53.9,29.95,ENE,67,0.0,0.0,59,0.00,,---,0.00,0.00,VWS V14.01,2013-07-23 23:25:00,
2013-07-24 01:30:00,68.7,53.8,29.95,ENE,67,0.0,0.0,59,0.00,,---,0.00,0.00,VWS V14.01,2013-07-23 23:30:00,
2013-07-24 01:40:00,68.4,54.0,29.95,ENE,67,0.0,0.0,60,0.00,,---,0.00,0.00,VWS V14.01,2013-07-23 23:40:00,
2013-07-24 01:45:00,68.3,54.3,29.95,ENE,67,0.0,0.0,61,0.00,,---,0.00,0.00,VWS V14.01,2013-07-23 23:45:00,
2013-07-24 01:55:00,67.9,54.4,29.95,ENE,67,0.0,0.0,62,0.00,,---,0.00,0.00,VWS V14.01,2013-07-23 23:55:00,
2013-07-24 02:05:00,67.5,54.0,29.95,ENE,67,0.0,0.0,62,0.00,,---,0.00,0.00,VWS V14.01,2013-07-24 00:05:00,
2013-07-24 02:10:00,67.4,54.4,29.95,ENE,67,0.0,0.0,63,0.00,,---,0.00,0.00,VWS V14.01,2013-07-24 00:10:00,
2013-07-24 02:15:00,67.2,54.6,29.96,ENE,67,0.0,0.0,64,0.00,,---,0.00,0.00,VWS V14.01,2013-07-24 00:15:00,
2013-07-24 02:25:00,66.7,54.6,29.96,ENE,67,0.0,0.0,65,0.00,,---,0.00,0.00,VWS V14.01,2013-07-24 00:25:00,
2013-07-24 02:30:00,66.4,54.3,29.96,ENE,67,0.0,0.0,65,0.00,,---,0.00,0.00,VWS V14.01,2013-07-24 00:30:00,
2013-07-24 02:35:00,66.2,54.5,29.96,ENE,67,0.0,0.0,66,0.00,,---,0.00,0.00,VWS V14.01,2013-07-24 00:35:00,
2013-07-24 02:45:00,65.7,54.5,29.96,ENE,67,0.0,0.0,67,0.00,,---,0.00,0.00,VWS V14.01,2013-07-24 00:45:00,
2013-07-24 02:55:00,65.1,54.3,29.96,ENE,67,0.0,0.0,68,0.00,,---,0.00,0.00,VWS V14.01,2013-07-24 00:55:00,
2013-07-24 03:00:00,64.8,54.0,29.96,ENE,67,0.0,0.0,68,0.00,,---,0.00,0.00,VWS V14.01,2013-07-24 01:00:00,
2013-07-24 03:10:00,64.4,54.0,29.96,ENE,67,0.0,0.0,69,0.00,,---,0.00,0.00,VWS V14.01,2013-07-24 01:10:00,
2013-07-24 03:15:00,64.3,53.9,29.96,ENE,67,0.0,0.0,69,0.00,,---,0.00,0.00,VWS V14.01,2013-07-24 01:15:00,
2013-07-24 03:25:00,64.1,53.7,29.96,ENE,67,0.0,0.0,69,0.00,,---,0.00,0.00,VWS V14.01,2013-07-24 01:25:00,
2013-07-24 03:30:00,64.1,53.7,29.96,ENE,67,0.0,0.0,69,0.00,,---,0.00,0.00,VWS V14.01,2013-07-24 01:30:00,
2013-07-24 03:35:00,64.0,54.0,29.96,ENE,67,0.0,0.0,70,0.00,,---,0.00,0.00,VWS V14.01,2013-07-24 01:35:00,
2013-07-24 03:45:00,63.8,53.8,29.96,ENE,67,0.0,0.0,70,0.00,,---,0.00,0.00,VWS V14.01,2013-07-24 01:45:00,
2013-07-24 03:50:00,63.6,53.7,29.96,ENE,67,0.0,0.0,70,0.00,,---,0.00,0.00,VWS V14.01,2013-07-24 01:50:00,
2013-07-24 03:55:00,63.6,53.7,29.96,ENE,67,0.0,0.0,70,0.00,,---,0.00,0.00,VWS V14.01,2013-07-24 01:55:00,
2013-07-24 04:00:00,63.5,53.9,29.96,ENE,67,0.0,0.0,71,0.00,,---,0.00,0.00,VWS V14.01,2013-07-24 02:00:00,
2013-07-24 04:05:00,63.4,53.5,29.96,ENE,67,0.0,0.0,70,0.00,,---,0.00,0.00,VWS V14.01,2013-07-24 02:05:00,
2013-07-24 04:15:00,63.2,53.7,29.96,ENE,67,0.0,0.0,71,0.00,,---,0.00,0.00,VWS V14.01,2013-07-24 02:15:00,
2013-07-24 04:20:00,63.0,53.5,29.96,ENE,67,0.0,0.0,71,0.00,,---,0.00,0.00,VWS V14.01,2013-07-24 02:20:00,
2013-07-24 04:30:00,62.7,53.5,29.96,ENE,67,0.0,0.0,72,0.00,,---,0.00,0.00,VWS V14.01,2013-07-24 02:30:00,
2013-07-24 04:40:00,62.5,53.4,29.96,ENE,67,0.0,0.0,72,0.00,,---,0.00,0.00,VWS V14.01,2013-07-24 02:40:00,
2013-07-24 04:45:00,62.4,53.6,29.96,ENE,67,0.0,0.0,73,0.00,,---,0.00,0.00,VWS V14.01,2013-07-24 02:45:00,
2013-07-24 04:55:00,62.3,53.5,29.96,ENE,67,0.0,0.0,73,0.00,,---,0.00,0.00,VWS V14.01,2013-07-24 02:55:00,
2013-07-24 05:00:00,62.2,53.5,29.96,ENE,67,0.0,0.0,73,0.00,,---,0.00,0.00,VWS V14.01,2013-07-24 03:00:00,
2013-07-24 05:10:00,62.2,53.5,29.96,ENE,67,0.0,1.0,73,0.00,,---,0.00,0.00,VWS V14.01,2013-07-24 03:10:00,
2013-07-24 05:15:00,62.1,53.7,29.96,ENE,67,0.0,0.0,74,0.00,,---,0.00,0.00,VWS V14.01,2013-07-24 03:15:00,
2013-07-24 05:25:00,61.8,53.4,29.96,ENE,67,0.0,0.0,74,0.00,,---,0.00,7.00,VWS V14.01,2013-07-24 03:25:00,
2013-07-24 05:35:00,61.6,53.2,29.96,ENE,67,0.0,0.0,74,0.00,,---,0.00,12.00,VWS V14.01,2013-07-24 03:35:00,
2013-07-24 05:45:00,61.6,53.2,29.97,ENE,67,0.0,0.0,74,0.00,,---,0.00,28.00,VWS V14.01,2013-07-24 03:45:00,
2013-07-24 05:55:00,61.6,53.6,29.97,ENE,67,0.0,0.0,75,0.00,,---,0.00,44.00,VWS V14.01,2013-07-24 03:55:00,
2013-07-24 06:00:00,61.7,53.3,29.97,ENE,67,0.0,0.0,74,0.00,,---,0.00,54.00,VWS V14.01,2013-07-24 04:00:00,
2013-07-24 06:05:00,61.8,53.8,29.97,ENE,67,0.0,0.0,75,0.00,,---,0.00,65.00,VWS V14.01,2013-07-24 04:05:00,
2013-07-24 06:10:00,61.9,53.5,29.97,ENE,67,0.0,0.0,74,0.00,,---,0.00,76.00,VWS V14.01,2013-07-24 04:10:00,
2013-07-24 06:15:00,62.1,53.3,29.97,ENE,67,0.0,0.0,73,0.00,,---,0.00,86.00,VWS V14.01,2013-07-24 04:15:00,
2013-07-24 06:20:00,62.2,53.5,29.97,ENE,67,0.0,0.0,73,0.00,,---,0.00,95.00,VWS V14.01,2013-07-24 04:20:00,
2013-07-24 06:25:00,62.3,53.5,29.97,ENE,67,0.0,0.0,73,0.00,,---,0.00,104.00,VWS V14.01,2013-07-24 04:25:00,
2013-07-24 06:30:00,62.5,53.7,29.98,ENE,67,0.0,0.0,73,0.00,,---,0.00,116.00,VWS V14.01,2013-07-24 04:30:00,
2013-07-24 06:35:00,62.7,53.5,29.98,ENE,67,0.0,0.0,72,0.00,,---,0.00,128.00,VWS V14.01,2013-07-24 04:35:00,
2013-07-24 06:45:00,63.2,53.7,29.98,ENE,67,0.0,0.0,71,0.00,,---,0.00,155.00,VWS V14.01,2013-07-24 04:45:00,
2013-07-24 06:50:00,63.5,53.5,29.98,ENE,67,0.0,0.0,70,0.00,,---,0.00,58.00,VWS V14.01,2013-07-24 04:50:00,
2013-07-24 06:55:00,63.8,53.8,29.98,ENE,67,0.0,0.0,70,0.00,,---,0.00,165.00,VWS V14.01,2013-07-24 04:55:00,
2013-07-24 07:00:00,64.1,54.1,29.98,ENE,67,0.0,0.0,70,0.00,,---,0.00,188.00,VWS V14.01,2013-07-24 05:00:00,
2013-07-24 07:10:00,64.8,54.4,29.98,ENE,67,0.0,0.0,69,0.00,,---,0.00,211.00,VWS V14.01,2013-07-24 05:10:00,
2013-07-24 07:15:00,65.1,54.3,29.98,ENE,67,0.0,0.0,68,0.00,,---,0.00,225.00,VWS V14.01,2013-07-24 05:15:00,
2013-07-24 07:20:00,65.5,54.7,29.98,ENE,67,0.0,0.0,68,0.00,,---,0.00,236.00,VWS V14.01,2013-07-24 05:20:00,
2013-07-24 07:25:00,65.7,54.5,29.98,ENE,67,2.0,3.0,67,0.00,,---,0.00,248.00,VWS V14.01,2013-07-24 05:25:00,
2013-07-24 07:30:00,65.9,54.7,29.98,ENE,67,0.0,0.0,67,0.00,,---,0.00,260.00,VWS V14.01,2013-07-24 05:30:00,
2013-07-24 07:40:00,66.3,54.6,29.98,ENE,67,0.0,0.0,66,0.00,,---,0.00,288.00,VWS V14.01,2013-07-24 05:40:00,
2013-07-24 07:50:00,66.9,55.2,29.98,NE,49,0.0,3.0,66,0.00,,---,0.00,318.00,VWS V14.01,2013-07-24 05:50:00,
2013-07-24 08:00:00,67.2,55.0,29.98,ENE,59,0.0,0.0,65,0.00,,---,0.00,348.00,VWS V14.01,2013-07-24 06:00:00,
2013-07-24 08:10:00,67.7,55.5,29.98,NE,53,2.0,3.0,65,0.00,,---,0.00,376.00,VWS V14.01,2013-07-24 06:10:00,
2013-07-24 08:20:00,68.1,55.0,29.99,NE,53,0.0,1.0,63,0.00,,---,0.00,406.00,VWS V14.01,2013-07-24 06:20:00,
2013-07-24 08:30:00,68.5,55.4,29.99,ENE,63,0.0,0.0,63,0.00,,---,0.00,432.00,VWS V14.01,2013-07-24 06:30:00,
2013-07-24 08:35:00,68.5,55.4,29.99,ENE,63,0.0,0.0,63,0.00,,---,0.00,445.00,VWS V14.01,2013-07-24 06:35:00,
2013-07-24 08:40:00,68.8,55.7,29.99,ENE,63,0.0,0.0,63,0.00,,---,0.00,455.00,VWS V14.01,2013-07-24 06:40:00,
2013-07-24 08:50:00,69.6,56.0,29.98,ENE,63,0.0,2.0,62,0.00,,---,0.00,485.00,VWS V14.01,2013-07-24 06:50:00,
2013-07-24 09:00:00,70.5,56.9,29.98,NE,56,0.0,2.0,62,0.00,,---,0.00,512.00,VWS V14.01,2013-07-24 07:00:00,
2013-07-24 09:10:00,71.3,57.2,29.98,ENE,61,0.0,3.0,61,0.00,,---,0.00,534.00,VWS V14.01,2013-07-24 07:10:00,
2013-07-24 09:15:00,71.7,57.1,29.99,ENE,76,0.0,0.0,60,0.00,,---,0.00,540.00,VWS V14.01,2013-07-24 07:15:00,
2013-07-24 09:20:00,72.0,57.4,29.99,East,80,1.0,2.0,60,0.00,,---,0.00,571.00,VWS V14.01,2013-07-24 07:20:00,
2013-07-24 09:25:00,72.4,57.3,29.99,ENE,78,0.0,3.0,59,0.00,,---,0.00,575.00,VWS V14.01,2013-07-24 07:25:00,
2013-07-24 09:30:00,72.8,57.2,29.98,East,91,0.0,0.0,58,0.00,,---,0.00,578.00,VWS V14.01,2013-07-24 07:30:00,
2013-07-24 09:35:00,73.2,57.5,29.98,East,85,0.0,2.0,58,0.00,,---,0.00,390.00,VWS V14.01,2013-07-24 07:35:00,
2013-07-24 09:40:00,73.6,57.4,29.98,NE,48,0.0,0.0,57,0.00,,---,0.00,598.00,VWS V14.01,2013-07-24 07:40:00,
2013-07-24 09:45:00,74.0,57.8,29.98,ENE,61,0.0,0.0,57,0.00,,---,0.00,612.00,VWS V14.01,2013-07-24 07:45:00,
2013-07-24 09:50:00,74.5,57.8,29.98,ENE,63,0.0,3.0,56,0.00,,---,0.00,619.00,VWS V14.01,2013-07-24 07:50:00,
2013-07-24 10:00:00,74.8,58.1,29.98,East,79,0.0,1.0,56,0.00,,---,0.00,638.00,VWS V14.01,2013-07-24 08:00:00,
2013-07-24 10:10:00,75.6,58.3,29.98,ENE,67,0.0,4.0,55,0.00,,---,0.00,663.00,VWS V14.01,2013-07-24 08:10:00,
2013-07-24 10:20:00,76.3,58.5,29.98,East,90,0.0,4.0,54,0.00,,---,0.00,689.00,VWS V14.01,2013-07-24 08:20:00,
2013-07-24 10:25:00,76.5,58.6,29.98,East,90,0.0,0.0,54,0.00,,---,0.00,701.00,VWS V14.01,2013-07-24 08:25:00,
2013-07-24 10:30:00,77.0,58.6,29.98,NE,40,0.0,3.0,53,0.00,,---,0.00,694.00,VWS V14.01,2013-07-24 08:30:00,
2013-07-24 10:35:00,77.3,58.8,29.98,NE,49,0.0,0.0,53,0.00,,---,0.00,707.00,VWS V14.01,2013-07-24 08:35:00,
2013-07-24 10:40:00,77.8,58.8,29.98,NE,52,2.0,2.0,52,0.00,,---,0.00,707.00,VWS V14.01,2013-07-24 08:40:00,
2013-07-24 10:50:00,78.5,59.4,29.98,ENE,68,0.0,0.0,52,0.00,,---,0.00,752.00,VWS V14.01,2013-07-24 08:50:00,
2013-07-24 11:00:00,78.7,59.1,29.98,East,90,0.0,0.0,51,0.00,,---,0.00,775.00,VWS V14.01,2013-07-24 09:00:00,
2013-07-24 11:10:00,79.6,59.3,29.98,NW,323,1.0,1.0,50,0.00,,---,0.00,770.00,VWS V14.01,2013-07-24 09:10:00,
2013-07-24 11:15:00,80.3,59.4,29.98,SE,134,1.0,4.0,49,0.00,,---,0.00,766.00,VWS V14.01,2013-07-24 09:15:00,
2013-07-24 11:20:00,80.2,58.2,29.98,South,174,0.0,1.0,47,0.00,,---,0.00,775.00,VWS V14.01,2013-07-24 09:20:00,
2013-07-24 11:30:00,80.4,57.8,29.97,ESE,121,0.0,1.0,46,0.00,,---,0.00,791.00,VWS V14.01,2013-07-24 09:30:00,
2013-07-24 11:35:00,81.3,57.3,29.97,East,94,0.0,5.0,44,0.00,,---,0.00,802.00,VWS V14.01,2013-07-24 09:35:00,
2013-07-24 11:40:00,82.1,57.4,29.97,East,92,4.0,5.0,43,0.00,,---,0.00,763.00,VWS V14.01,2013-07-24 09:40:00,
2013-07-24 11:50:00,82.7,57.3,29.97,ENE,57,0.0,5.0,42,0.00,,---,0.00,756.00,VWS V14.01,2013-07-24 09:50:00,
2013-07-24 11:55:00,82.5,57.1,29.97,ENE,69,0.0,2.0,42,0.00,,---,0.00,795.00,VWS V14.01,2013-07-24 09:55:00,
2013-07-24 12:00:00,83.4,56.6,29.97,NE,55,5.0,5.0,40,0.00,,---,0.00,773.00,VWS V14.01,2013-07-24 10:00:00,
2013-07-24 12:10:00,83.1,55.6,29.97,ENE,64,0.0,1.0,39,0.00,,---,0.00,833.00,VWS V14.01,2013-07-24 10:10:00,
2013-07-24 12:15:00,82.8,55.3,29.96,East,84,2.0,2.0,39,0.00,,---,0.00,807.00,VWS V14.01,2013-07-24 10:15:00,
2013-07-24 12:20:00,83.1,56.3,29.96,North,11,0.0,5.0,40,0.00,,---,0.00,824.00,VWS V14.01,2013-07-24 10:20:00,
2013-07-24 12:25:00,83.7,56.8,29.96,NNE,25,0.0,0.0,40,0.00,,---,0.00,847.00,VWS V14.01,2013-07-24 10:25:00,
2013-07-24 12:35:00,83.9,54.1,29.96,SSW,198,0.0,4.0,36,0.00,,---,0.00,861.00,VWS V14.01,2013-07-24 10:35:00,
2013-07-24 12:40:00,82.6,54.5,29.96,SE,127,6.0,6.0,38,0.00,,---,0.00,856.00,VWS V14.01,2013-07-24 10:40:00,
2013-07-24 12:50:00,83.0,55.5,29.96,ENE,69,2.0,8.0,39,0.00,,---,0.00,870.00,VWS V14.01,2013-07-24 10:50:00,
2013-07-24 12:55:00,84.3,56.0,29.96,ENE,59,0.0,3.0,38,0.00,,---,0.00,893.00,VWS V14.01,2013-07-24 10:55:00,
2013-07-24 13:00:00,86.0,56.0,29.96,North,11,0.0,8.0,36,0.00,,---,0.00,877.00,VWS V14.01,2013-07-24 11:00:00,
2013-07-24 13:10:00,86.1,56.0,29.96,NE,36,0.0,6.0,36,0.00,,---,0.00,615.00,VWS V14.01,2013-07-24 11:10:00,
2013-07-24 13:15:00,86.3,56.2,29.95,NE,54,0.0,1.0,36,0.00,,---,0.00,612.00,VWS V14.01,2013-07-24 11:15:00,
2013-07-24 13:20:00,85.7,54.9,29.95,East,79,0.0,5.0,35,0.00,,---,0.00,686.00,VWS V14.01,2013-07-24 11:20:00,
2013-07-24 13:25:00,84.6,54.7,29.95,ENE,60,0.0,3.0,36,0.00,,---,0.00,582.00,VWS V14.01,2013-07-24 11:25:00,
2013-07-24 13:30:00,86.7,55.8,29.95,East,90,2.0,4.0,35,0.00,,---,0.00,835.00,VWS V14.01,2013-07-24 11:30:00,
2013-07-24 13:35:00,86.0,54.4,29.95,SE,140,0.0,4.0,34,0.00,,---,0.00,796.00,VWS V14.01,2013-07-24 11:35:00,
2013-07-24 13:40:00,84.9,55.0,29.95,East,82,0.0,5.0,36,0.00,,---,0.00,835.00,VWS V14.01,2013-07-24 11:40:00,
2013-07-24 13:50:00,86.3,55.5,29.95,South,175,0.0,2.0,35,0.00,,---,0.00,833.00,VWS V14.01,2013-07-24 11:50:00,
2013-07-24 14:00:00,84.5,53.1,29.94,South,178,2.0,3.0,34,0.00,,---,0.00,842.00,VWS V14.01,2013-07-24 12:00:00,
2013-07-24 14:10:00,86.3,53.8,29.94,SE,133,4.0,6.0,33,0.00,,---,0.00,821.00,VWS V14.01,2013-07-24 12:10:00,
2013-07-24 14:15:00,86.0,53.6,29.94,East,89,3.0,4.0,33,0.00,,---,0.00,693.00,VWS V14.01,2013-07-24 12:15:00,
2013-07-24 14:20:00,85.5,53.1,29.94,ESE,111,5.0,7.0,33,0.00,,---,0.00,817.00,VWS V14.01,2013-07-24 12:20:00,
2013-07-24 14:25:00,87.3,54.7,29.94,East,88,0.0,2.0,33,0.00,,---,0.00,805.00,VWS V14.01,2013-07-24 12:25:00,
2013-07-24 14:35:00,88.0,53.6,29.93,ENE,76,0.0,1.0,31,0.00,,---,0.00,712.00,VWS V14.01,2013-07-24 12:35:00,
2013-07-24 14:40:00,86.2,52.9,29.93,ENE,76,0.0,1.0,32,0.00,,---,0.00,789.00,VWS V14.01,2013-07-24 12:40:00,
2013-07-24 14:45:00,87.5,54.9,29.93,ENE,64,4.0,7.0,33,0.00,,---,0.00,786.00,VWS V14.01,2013-07-24 12:45:00,
2013-07-24 14:50:00,89.3,54.7,29.93,NE,40,1.0,4.0,31,0.00,,---,0.00,775.00,VWS V14.01,2013-07-24 12:50:00,
2013-07-24 15:00:00,87.1,53.7,29.93,ENE,78,0.0,5.0,32,0.00,,---,0.00,689.00,VWS V14.01,2013-07-24 13:00:00,
2013-07-24 15:10:00,87.1,54.5,29.93,East,82,1.0,8.0,33,0.00,,---,0.00,466.00,VWS V14.01,2013-07-24 13:10:00,
2013-07-24 15:20:00,87.1,53.7,29.93,East,89,0.0,0.0,32,0.00,,---,0.00,714.00,VWS V14.01,2013-07-24 13:20:00,
2013-07-24 15:25:00,86.3,53.0,29.93,SE,144,0.0,1.0,32,0.00,,---,0.00,708.00,VWS V14.01,2013-07-24 13:25:00,
2013-07-24 15:30:00,89.3,54.7,29.92,ESE,122,0.0,3.0,31,0.00,,---,0.00,701.00,VWS V14.01,2013-07-24 13:30:00,
2013-07-24 15:35:00,89.7,55.1,29.92,ESE,107,1.0,2.0,31,0.00,,---,0.00,700.00,VWS V14.01,2013-07-24 13:35:00,
2013-07-24 15:45:00,88.9,55.3,29.91,NE,41,5.0,7.0,32,0.00,,---,0.00,650.00,VWS V14.01,2013-07-24 13:45:00,
2013-07-24 15:50:00,90.6,55.0,29.91,NE,56,8.0,8.0,30,0.00,,---,0.00,578.00,VWS V14.01,2013-07-24 13:50:00,
2013-07-24 15:55:00,89.2,54.6,29.91,East,84,3.0,7.0,31,0.00,,---,0.00,656.00,VWS V14.01,2013-07-24 13:55:00,
2013-07-24 16:00:00,89.5,54.9,29.91,NE,55,5.0,7.0,31,0.00,,---,0.00,654.00,VWS V14.01,2013-07-24 14:00:00,
2013-07-24 16:10:00,89.6,54.1,29.91,ENE,69,0.0,6.0,30,0.00,,---,0.00,606.00,VWS V14.01,2013-07-24 14:10:00,
2013-07-24 16:20:00,87.5,54.9,29.91,NE,43,0.0,0.0,33,0.00,,---,0.00,503.00,VWS V14.01,2013-07-24 14:20:00,
2013-07-24 16:25:00,87.5,54.0,29.91,SE,130,0.0,7.0,32,0.00,,---,0.00,547.00,VWS V14.01,2013-07-24 14:25:00,
2013-07-24 16:30:00,88.8,55.2,29.90,NE,34,5.0,7.0,32,0.00,,---,0.00,526.00,VWS V14.01,2013-07-24 14:30:00,
2013-07-24 16:35:00,89.4,55.7,29.90,NNE,32,4.0,7.0,32,0.00,,---,0.00,480.00,VWS V14.01,2013-07-24 14:35:00,
2013-07-24 16:45:00,90.8,55.1,29.90,NNE,33,5.0,7.0,30,0.00,,---,0.00,547.00,VWS V14.01,2013-07-24 14:45:00,
2013-07-24 16:55:00,89.1,55.4,29.90,North,9,6.0,10.0,32,0.00,,---,0.00,534.00,VWS V14.01,2013-07-24 14:55:00,
2013-07-24 17:00:00,90.8,56.0,29.90,NE,51,4.0,6.0,31,0.00,,---,0.00,533.00,VWS V14.01,2013-07-24 15:00:00,
2013-07-24 17:10:00,89.8,55.2,29.90,NE,56,0.0,5.0,31,0.00,,---,0.00,480.00,VWS V14.01,2013-07-24 15:10:00,
2013-07-24 17:15:00,89.3,55.6,29.90,NE,46,3.0,11.0,32,0.00,,---,0.00,469.00,VWS V14.01,2013-07-24 15:15:00,
2013-07-24 17:20:00,90.0,55.3,29.90,NNE,25,3.0,11.0,31,0.00,,---,0.00,452.00,VWS V14.01,2013-07-24 15:20:00,
2013-07-24 17:25:00,89.8,55.2,29.90,ENE,60,6.0,7.0,31,0.00,,---,0.00,318.00,VWS V14.01,2013-07-24 15:25:00,
2013-07-24 17:30:00,89.4,54.8,29.90,NE,47,0.0,5.0,31,0.00,,---,0.00,299.00,VWS V14.01,2013-07-24 15:30:00,
2013-07-24 17:40:00,87.1,53.7,29.90,WSW,246,2.0,5.0,32,0.00,,---,0.00,403.00,VWS V14.01,2013-07-24 15:40:00,
2013-07-24 17:45:00,88.4,55.7,29.90,NNW,327,0.0,0.0,33,0.00,,---,0.00,396.00,VWS V14.01,2013-07-24 15:45:00,
2013-07-24 17:50:00,88.8,55.2,29.90,East,80,0.0,7.0,32,0.00,,---,0.00,380.00,VWS V14.01,2013-07-24 15:50:00,
2013-07-24 18:00:00,90.2,55.5,29.89,ENE,59,4.0,7.0,31,0.00,,---,0.00,330.00,VWS V14.01,2013-07-24 16:00:00,
2013-07-24 18:10:00,88.8,55.2,29.89,NE,46,9.0,11.0,32,0.00,,---,0.00,287.00,VWS V14.01,2013-07-24 16:10:00,
2013-07-24 18:20:00,87.8,55.2,29.89,ENE,73,3.0,7.0,33,0.00,,---,0.00,174.00,VWS V14.01,2013-07-24 16:20:00,
2013-07-24 18:30:00,87.8,55.2,29.89,ENE,69,1.0,5.0,33,0.00,,---,0.00,105.00,VWS V14.01,2013-07-24 16:30:00,
2013-07-24 18:35:00,87.8,54.3,29.89,ENE,74,3.0,7.0,32,0.00,,---,0.00,113.00,VWS V14.01,2013-07-24 16:35:00,
2013-07-24 18:40:00,87.5,54.9,29.89,ENE,65,0.0,1.0,33,0.00,,---,0.00,107.00,VWS V14.01,2013-07-24 16:40:00,
2013-07-24 18:50:00,87.5,54.9,29.88,East,80,1.0,3.0,33,0.00,,---,0.00,102.00,VWS V14.01,2013-07-24 16:50:00,
2013-07-24 19:00:00,87.1,55.4,29.89,ENE,78,1.0,4.0,34,0.00,,---,0.00,84.00,VWS V14.01,2013-07-24 17:00:00,
2013-07-24 19:10:00,86.8,55.1,29.89,SE,141,0.0,1.0,34,0.00,,---,0.00,74.00,VWS V14.01,2013-07-24 17:10:00,
2013-07-24 19:15:00,86.2,58.4,29.89,SW,218,7.0,11.0,39,0.00,,---,0.00,69.00,VWS V14.01,2013-07-24 17:15:00,
2013-07-24 19:25:00,84.8,59.2,29.89,WSW,245,0.0,7.0,42,0.00,,---,0.00,62.00,VWS V14.01,2013-07-24 17:25:00,
2013-07-24 19:30:00,84.2,59.3,29.90,West,281,6.0,9.0,43,0.00,,---,0.00,56.00,VWS V14.01,2013-07-24 17:30:00,
2013-07-24 19:40:00,83.5,59.9,29.90,WSW,245,2.0,6.0,45,0.00,,---,0.00,44.00,VWS V14.01,2013-07-24 17:40:00,
2013-07-24 19:45:00,83.4,59.8,29.90,WSW,241,0.0,0.0,45,0.00,,---,0.00,39.00,VWS V14.01,2013-07-24 17:45:00,
2013-07-24 19:55:00,83.1,59.6,29.90,SW,230,0.0,2.0,45,0.00,,---,0.00,33.00,VWS V14.01,2013-07-24 17:55:00,
2013-07-24 20:00:00,83.0,59.5,29.90,WSW,248,0.0,6.0,45,0.00,,---,0.00,30.00,VWS V14.01,2013-07-24 18:00:00,
2013-07-24 20:10:00,82.6,59.8,29.90,WSW,252,1.0,5.0,46,0.00,,---,0.00,25.00,VWS V14.01,2013-07-24 18:10:00,
2013-07-24 20:15:00,82.4,59.6,29.90,WSW,244,0.0,4.0,46,0.00,,---,0.00,19.00,VWS V14.01,2013-07-24 18:15:00,
2013-07-24 20:20:00,82.4,59.6,29.90,WSW,243,0.0,1.0,46,0.00,,---,0.00,16.00,VWS V14.01,2013-07-24 18:20:00,
2013-07-24 20:25:00,82.3,59.5,29.90,West,265,0.0,3.0,46,0.00,,---,0.00,11.00,VWS V14.01,2013-07-24 18:25:00,
2013-07-24 20:30:00,82.2,60.0,29.91,West,264,0.0,0.0,47,0.00,,---,0.00,7.00,VWS V14.01,2013-07-24 18:30:00,
2013-07-24 20:35:00,82.1,59.9,29.91,West,265,0.0,0.0,47,0.00,,---,0.00,5.00,VWS V14.01,2013-07-24 18:35:00,
2013-07-24 20:40:00,82.0,59.8,29.91,West,265,0.0,0.0,47,0.00,,---,0.00,0.00,VWS V14.01,2013-07-24 18:40:00,
2013-07-24 20:50:00,82.0,59.8,29.91,West,264,0.0,0.0,47,0.00,,---,0.00,0.00,VWS V14.01,2013-07-24 18:50:00,
2013-07-24 20:55:00,81.9,59.7,29.91,West,264,0.0,0.0,47,0.00,,---,0.00,0.00,VWS V14.01,2013-07-24 18:55:00,
2013-07-24 21:00:00,81.9,59.7,29.91,West,265,0.0,0.0,47,0.00,,---,0.00,0.00,VWS V14.01,2013-07-24 19:00:00,
2013-07-24 21:10:00,81.6,60.0,29.91,West,265,0.0,0.0,48,0.00,,---,0.00,0.00,VWS V14.01,2013-07-24 19:10:00,
2013-07-24 21:15:00,81.4,59.8,29.91,West,265,0.0,0.0,48,0.00,,---,0.00,0.00,VWS V14.01,2013-07-24 19:15:00,
2013-07-24 21:25:00,81.0,60.1,29.91,West,264,0.0,0.0,49,0.00,,---,0.00,0.00,VWS V14.01,2013-07-24 19:25:00,
2013-07-24 21:30:00,80.8,59.9,29.91,West,265,0.0,0.0,49,0.00,,---,0.00,0.00,VWS V14.01,2013-07-24 19:30:00,
2013-07-24 21:40:00,80.5,60.2,29.91,West,265,0.0,0.0,50,0.00,,---,0.00,0.00,VWS V14.01,2013-07-24 19:40:00,
2013-07-24 21:45:00,80.3,60.5,29.92,West,265,0.0,1.0,51,0.00,,---,0.00,0.00,VWS V14.01,2013-07-24 19:45:00,
2013-07-24 21:50:00,80.2,60.5,29.92,West,265,0.0,0.0,51,0.00,,---,0.00,0.00,VWS V14.01,2013-07-24 19:50:00,
2013-07-24 21:55:00,80.1,60.4,29.92,West,264,0.0,0.0,51,0.00,,---,0.00,0.00,VWS V14.01,2013-07-24 19:55:00,
2013-07-24 22:00:00,80.1,60.4,29.93,West,268,2.0,4.0,51,0.00,,---,0.00,0.00,VWS V14.01,2013-07-24 20:00:00,
2013-07-24 22:10:00,79.1,60.5,29.93,WNW,282,0.0,6.0,53,0.00,,---,0.00,0.00,VWS V14.01,2013-07-24 20:10:00,
2013-07-24 22:15:00,78.8,59.7,29.95,NNW,334,6.0,12.0,52,0.00,,---,0.00,0.00,VWS V14.01,2013-07-24 20:15:00,
2013-07-24 22:20:00,78.3,59.8,29.95,WNW,300,7.0,11.0,53,0.00,,---,0.00,0.00,VWS V14.01,2013-07-24 20:20:00,
2013-07-24 22:25:00,77.5,60.1,29.95,North,349,4.0,12.0,55,0.00,,---,0.00,0.00,VWS V14.01,2013-07-24 20:25:00,
2013-07-24 22:30:00,77.0,60.6,29.95,NW,320,6.0,7.0,57,0.00,,---,0.00,0.00,VWS V14.01,2013-07-24 20:30:00,
2013-07-24 22:35:00,76.5,61.1,29.95,NNW,348,4.0,4.0,59,0.00,,---,0.00,0.00,VWS V14.01,2013-07-24 20:35:00,
2013-07-24 22:45:00,75.3,60.9,29.95,WNW,292,9.0,10.0,61,0.00,,---,0.00,0.00,VWS V14.01,2013-07-24 20:45:00,
2013-07-24 22:50:00,75.0,61.1,29.95,NNW,327,4.0,4.0,62,0.00,,---,0.00,0.00,VWS V14.01,2013-07-24 20:50:00,
2013-07-24 22:55:00,74.7,60.8,29.95,NNW,331,2.0,6.0,62,0.00,,---,0.00,0.00,VWS V14.01,2013-07-24 20:55:00,
2013-07-24 23:00:00,74.6,60.7,29.95,NW,322,0.0,4.0,62,0.00,,---,0.00,0.00,VWS V14.01,2013-07-24 21:00:00,
2013-07-24 23:10:00,74.6,60.7,29.95,NW,307,0.0,1.0,62,0.00,,---,0.00,0.00,VWS V14.01,2013-07-24 21:10:00,
2013-07-24 23:15:00,74.7,61.3,29.95,NW,309,0.0,0.0,63,0.00,,---,0.00,0.00,VWS V14.01,2013-07-24 21:15:00,
2013-07-24 23:20:00,74.5,61.1,29.95,NNW,327,0.0,5.0,63,0.00,,---,0.00,0.00,VWS V14.01,2013-07-24 21:20:00,
2013-07-24 23:30:00,74.0,62.4,29.94,North,350,7.0,7.0,67,0.01,,---,0.01,0.00,VWS V14.01,2013-07-24 21:30:00,
2013-07-24 23:40:00,73.1,63.2,29.94,WNW,295,14.0,15.0,71,0.01,,---,0.01,0.00,VWS V14.01,2013-07-24 21:40:00,
2013-07-24 23:45:00,72.5,63.4,29.96,WNW,303,6.0,11.0,73,0.01,,---,0.01,0.00,VWS V14.01,2013-07-24 21:45:00,
2013-07-24 23:50:00,71.9,62.8,29.96,West,281,5.0,12.0,73,0.01,,---,0.01,0.00,VWS V14.01,2013-07-24 21:50:00,
2013-07-24 23:55:00,71.6,62.9,29.96,NW,310,4.0,8.0,74,0.01,,---,0.01,0.00,VWS V14.01,2013-07-24 21:55:00,